Regional Weather Roundup
Issued by NWS

Home | Current Version | Previous Version | Text Only | Print | Product List | Glossary On
Versions: 1 2 3 4 5 6 7 8 9 10 11 12 13 14 15 16 17 18 19 20 21 22 23 24 25 26 27 28 29 30 31 32 33 34 35 36 37 38 39 40 41 42 43 44 45 46 47 48 49 50
000
ASUS43 KDTX 261010
RWRMI
MICHIGAN HOURLY REGIONAL WEATHER ROUNDUP
NATIONAL WEATHER SERVICE DETROIT/PONTIAC MI
ISSUED BY NATIONAL WEATHER SERVICE GRAND RAPIDS MI
600 AM EDT FRI MAY 26 2017

NOTE: "FAIR" INDICATES FEW OR NO CLOUDS BELOW 12,000 FEET WITH NO
SIGNIFICANT WEATHER AND/OR OBSTRUCTION TO VISIBILITY.

MIZ047>049-052>055-059>063-066>070-074>076-081>083-261100-
SOUTHEAST LOWER MICHIGAN

CITY           SKY/WX    TMP DP  RH WIND       PRES   REMARKS
ADRIAN         CLOUDY    56  54  93 NW8       29.78R
ALMA           CLOUDY    55  52  92 W7        29.79R
ANN ARBOR      CLOUDY    55  53  93 W8        29.75R
BAD AXE        FOG       49  49 100 NW9       29.72R VSB 1
DETROIT CITY   CLOUDY    55  52  89 NW6       29.73R
DETROIT        CLOUDY    56  52  86 NW7       29.75R
FLINT          CLOUDY    54  52  93 NW6       29.75R
GROSSE ILE     CLOUDY    56  53  88 NW7       29.73R
HILLSDALE      CLOUDY    52  50  93 NW10      29.78R FOG
HOWELL         CLOUDY    54  51  89 NW5       29.77R

CITY           SKY/WX    TMP DP  RH WIND       PRES   REMARKS
JACKSON        CLOUDY    55  52  89 NW9       29.78R
LANSING        CLOUDY    55  50  83 W7        29.79R
MASON          CLOUDY    55  52  90 NW6       29.79R
MONROE         CLOUDY    57  54  87 NW8       29.74R
MT. CLEMENS    CLOUDY    55  55 100 W8        29.71R
PONTIAC        CLOUDY    53  51  93 NW7       29.73R
PORT HOPE        N/A     49  48  97 NW8       29.70R
PORT HURON     CLOUDY    54  50  87 NW7       29.71R
TRI CITIES     CLOUDY    56  53  90 NW7       29.76R
YPSILANTI      CLOUDY    57  53  86 NW9       29.75R
$$
MIZ043>046-050>051-056>058-064>065-071>073-077>080-261100-
SOUTHWEST LOWER MICHIGAN

CITY           SKY/WX    TMP DP  RH WIND       PRES   REMARKS
BATTLE CREEK   CLOUDY    52  52 100 NW7       29.81R FOG
BENTON HARBOR  CLOUDY    51  49  92 W5        29.83R
BIG RAPIDS     CLOUDY    52  49  91 NW7       29.79S
COLDWATER      FOG       52  52 100 W7        29.80R VSB 1
HOLLAND        FOG       49  47  93 W3        29.82R VSB 1
GRAND RAPIDS   PTCLDY    52  52 100 W7        29.80R
KALAMAZOO      FOG       51  49  92 W5        29.82R VSB 1/2
MARSHALL       CLOUDY    52  52  98 W6        29.80R FOG
MOUNT PLEASANT CLOUDY    55  51  86 W6        29.78R
MUSKEGON       PTCLDY    50  49  96 CALM      29.82R
STURGIS        CLOUDY    51  51  99 NW6       29.81R FOG
$$
MIZ016>042-261100-
NORTHERN LOWER MICHIGAN

CITY           SKY/WX    TMP DP  RH WIND       PRES   REMARKS
ALPENA         CLOUDY    54  54 100 NW6       29.75R
BEAVER ISLAND  CLOUDY    52  51  98 CALM      29.80R
BELLAIRE       CLOUDY    54  51  90 CALM      29.80R
CADILLAC       CLOUDY    53  51  94 NW5       29.79R
CHARLEVOIX     FOG       49  49 100 CALM      29.82R VSB 1/4
GAYLORD        CLOUDY    54  50  86 NW3       29.77R
HOUGHTON LAKE  CLOUDY    54  51  90 NW6       29.78R
MANISTEE       FOG       46  46 100 W6        29.82R VSB 1/4
OSCODA         LGT RAIN  55  54  97 N6        29.72R
PELLSTON       PTCLDY    52  50  93 NW6       29.78R
TRAVERSE CITY  CLOUDY    50  49  96 W5        29.80R
LUDINGTON      FOG       46  46 100 CALM      29.82R VSB 1/2
$$
MIZ007>008-015-261100-
EASTERN UPPER MICHIGAN

CITY           SKY/WX    TMP DP  RH WIND       PRES   REMARKS
KINROSS        CLEAR     49  48  97 N8        29.78S
MACKINAC ISLAN CLEAR     51  51 100 N7        29.77S
NEWBERRY       MOCLDY    49  49  97 NW5       29.80R
S. S. MARIE    CLOUDY    49  46  90 W3        29.77R
$$
MIZ004>006-011>014-085-261100-
CENTRAL UPPER MICHIGAN

CITY           SKY/WX    TMP DP  RH WIND       PRES   REMARKS
MANISTIQUE     CLEAR     47  44  90 W3        29.81R FOG
ESCANABA       CLEAR     45  45 100 W3        29.82S FOG
MENOMINEE      FOG       45  45 100 CALM      29.83F VSB 1/4
SAWYER-GWINN   CLEAR     42  41  97 CALM      29.83S FOG
$$
MIZ001>003-009>011-084-261100-
WESTERN UPPER MICHIGAN

CITY           SKY/WX    TMP DP  RH WIND       PRES   REMARKS
IRON MOUNTAIN  FOG       43  41  93 CALM      29.81F VSB 1/4
HOUGHTON       PTCLDY    47  43  86 SE5       29.79S
COPPER HARBOR    N/A     51  47  86 VRB3      29.79S
IRONWOOD       CLOUDY    58  51  78 S9        29.78R
$$

ABBREVIATIONS USED IN REMARKS
   TC - TEMPERATURE IN CELSIUS
  WCI - WIND CHILL INDEX
   HX - HEAT INDEX
  VSB - VISIBILITY





USA.gov is the U.S. government's official web portal to all federal, state and local government web resources and services.